User: anonymous   Login
Location: Saint Peter Port
(49.4500°N, 2.5330°W)
Time: 01:12:52
(UTC+00:00)
Language:

Cosmos 2242 Rocket - Orbit

View from above orbital plane
View from above orbital plane
View from above satellite
View from above satellite

Ground track
Ground track

The orbit data is extracted from the following two-line orbital elements,

1 22627U 93024B   14332.37950834  .00000479  00000-0  63284-4 0  4979
2 22627 082.5241 245.2578 0025074 134.8676 357.4793 14.77739168164517
Epoch (UTC): 28 November 2014 09:06:29
Eccentricity: 0.0025074
inclination: 82.5241°
perigee height: 619 km
apogee height: 654 km
right ascension of ascending node: 245.2578°
argument of perigee: 134.8676°
revolutions per day: 14.77739168
mean anomaly at epoch: 357.4793°
orbit number at epoch: 16451

The dashed part of the orbit path shows where the satellite is in the earth's shadow,  

DLR